Airfield :
LOGIN :

Register | Disclaimer

   EN    FR    IT 

 










Legend :    VFR   Marginal VFR   IFR   Intensive IFR   Very Intensive IFR
Visi :
Ceiling :
>= 8 km
>= 3000ft
5 to 8 km
1000 to 3000 ft
1500m to 5 km
500 to 1000 ft
800 to 1500m
200 to 500 ft
< 800m
< 200 ft
Symbols :   Thunderstorms  Fog  Heavy snow  Heavy precipitations  Wind > 20 kt
SIGMETs :     Misc.  Thunderstorms  Icing  Turbulence  Mountain Waves  Volcanic Ashes







- Airport Elevation : 538 ft
- IATA code : TNF
- Download approach charts


LFPN - Toussus Le Noble

CURRENT METAR :
  • 211800Z AUTO 04007KT CAVOK 13/05 Q1030 NOSIG

EXPIRED METARs :
  • 211730Z AUTO 03008KT CAVOK 14/05 Q1030 NOSIG
  • 211700Z AUTO 04008KT 010V080 CAVOK 15/04 Q1030 NOSIG
  • 211630Z AUTO 04007KT 010V080 CAVOK 15/04 Q1030 NOSIG
  • 211600Z AUTO 02008KT 360V060 CAVOK 16/04 Q1031 NOSIG
  • 211530Z AUTO 03008KT 340V070 CAVOK 16/04 Q1031 NOSIG

TAF TAF LFPN
Valid from the 21 at 18:00 until the 22 at 03:00 UTC


211700Z 2118/2203 04005KT CAVOK
TEMPO 2201/2203 0900 BCFG
ATIS : +33 1 39 56 54 70
No reported NOTAMs for that airfield.



MET'MAP, your aeronautical weather chart ! - Copyright ORBIFLY December 2007 - Disclaimer

ORBIFLY MET'MAP TEAM :

Programming & Development : Alexandra Zaïnal
Concept & Development : Baudouin d'Aumeries
Co-Development & Prog : Marc-Olivier Méhu
Technical & hardware support : Manuel Goepfert

Contact : metmap@orbifly.com




SOURCES & CREDITS :

   NOAA